Regional Weather Roundup
Issued by NWS

Home | Current Version | Previous Version | Graphics & Text | Print | Product List | Glossary On
Versions: 1 2 3 4 5 6 7 8 9 10 11 12 13 14 15 16 17 18 19 20 21 22 23 24 25 26 27 28 29 30 31 32 33 34 35 36 37 38 39 40 41 42 43 44 45 46 47 48 49 50
403
ASUS45 KSLC 010210
RWRUT

UTAH REGIONAL WEATHER ROUNDUP
NATIONAL WEATHER SERVICE SALT LAKE CITY UT
800 PM MDT WED AUG 31 2016

UTZ001>011-023>025-010300-

NORTHERN UTAH

CITY           SKY/WX    TMP DP  RH WIND       PRES   REMARKS
BRIGHAM CITY     N/A     84  43  24 E3        29.97S
HILL AFB       MOCLDY    87  36  16 E3        30.01S
LOGAN          MOCLDY    83  44  25 E6        29.98F
OGDEN          MOCLDY    87  34  15 CALM      29.97F
PROVO AIRPORT  PTCLDY    86  39  19 SE6       29.99S
SALT LAKE CITY MOCLDY    90  35  14 CALM      29.95S
VERNAL         CLEAR     74  45  35 W6        30.08S
WENDOVER       MOCLDY    90  34  13 SW5       29.93S
HEBER CITY     PTCLDY    81  30  16 S5        30.07S
WEST JORDAN    MOCLDY    84  38  19 CALM      30.00S

$$

UTZ012>022-026-027-010300-

SOUTHERN/CENTRAL UTAH

CITY           SKY/WX    TMP DP  RH WIND       PRES   REMARKS
BLANDING       CLEAR     78  40  26 S5        30.25S
BRYCE CANYON   PTCLDY    62  38  40 S6        30.30S
CEDAR CITY     PTCLDY    78  37  22 SW9       30.12R
DELTA          PTCLDY    86  27  11 SW7       30.01R
MILFORD        PTCLDY    86  31  13 SW13      30.04S
MOAB/CYNLANDS  PTCLDY    86  38  18 W5        30.03S
PRICE          CLEAR     79  29  16 S6        30.14S
ST GEORGE      PTCLDY    95  43  16 S6        29.92S HX  91

$$

REGIONAL REPORTS     COLORADO/ARIZONA

CITY           SKY/WX    TMP DP  RH WIND       PRES   REMARKS
CRAIG, CO      CLEAR     68  35  29 CALM      30.17R
GRAND JUNCTION CLEAR     85  41  21 W3        30.07R
RIFLE          CLEAR     79  40  24 W8        30.12R
MONTROSE       CLEAR     75  47  36 S3        30.17S
CORTEZ         CLEAR     72  53  51 NE5       30.20S
PAGE, AZ       CLEAR     89  37  16 NE5       30.02S
GRAND CANYON   PTCLDY    68  49  50 CALM      30.24S
KINGMAN        PTCLDY    85  55  35 S8        29.97S
FLAGSTAFF      CLEAR     65  51  60 CALM      30.27R

$$

REGIONAL REPORTS    NEVADA/IDAHO/WYOMING

CITY           SKY/WX    TMP DP  RH WIND       PRES   REMARKS
LAS VEGAS, NV  MOCLDY   100  39  12 SE8       29.79S HX  95
ELY            PTCLDY    79  29  16 S15G22    30.11S
ELKO           MOCLDY    82  32  16 W7        29.98R THUNDER
POCATELLO, ID  PTCLDY    82  43  25 CALM      29.97S
BURLEY         CLOUDY    80  45  28 N3        29.92R
EVANSTON, WY   CLOUDY    74  29  19 S7        30.22S
ROCK SPRINGS   CLEAR     74  19  12 E8        30.19S

$$




USA.gov is the U.S. government's official web portal to all federal, state and local government web resources and services.